[[{"header":{"parameterUnit":"m.s-1","parameterCategory":1,"la1":30.2991,"la2":30.254,"lo1":-89.0895,"lo2":-89.0444,"dy":0.0017,"dx":0.0017,"nx":28,"ny":28,"refTime":"2024-05-13T21:00:00:Z","depth":0,"parameterNumber":2,"parameterNumberName":"U-component_of_WINDS"},"data":[0,0,0,0,0,0,0,0,0,0,0,0,0,0,0,0,0,0,0,0,0,0,0,0,0,0,0,0,0,0,0,0,0,0,0,0,0,0,0,0,0,0,0,0,0,0,0,0,0,0,0,0,0,0,0,0,0,0,3.2138,3.214,0,3.2296,3.2298,3.23,3.2348,3.2347,3.2347,3.2346,3.2514,3.2519,3.2525,0,0,0,0,0,0,0,0,0,0,0,0,0,3.1884,3.1888,3.2138,3.214,3.2142,3.2296,3.2298,3.2301,3.2348,3.2347,3.2346,3.2345,3.2513,3.2519,3.2525,0,0,0,0,0,0,0,0,0,0,0,0,0,3.2013,3.189,3.2137,3.2184,3.219,3.2296,3.2298,3.2301,3.2349,3.2347,3.2346,3.2345,3.2511,3.2518,3.2526,3.2599,0,0,3.255,3.2553,0,0,0,0,0,0,0,0,3.2006,3.2023,3.2175,3.2181,3.2188,3.2301,3.2271,3.2401,3.2349,3.2289,3.2346,3.2344,3.2445,3.2458,3.2491,3.2607,3.2614,3.2551,3.2555,3.2559,3.2561,0,0,0,0,0,0,0,3.1997,3.2016,3.2201,3.2177,3.2185,3.22,3.2217,3.2296,3.2372,3.2294,3.2298,3.2315,3.2448,3.2483,3.2495,3.2616,3.255,3.2557,3.2562,3.2565,3.2804,3.2805,0,0,0,0,0,0,3.1979,3.2008,3.2196,3.2205,3.2092,3.2205,3.2224,3.2266,3.2371,3.2386,3.2316,3.2317,3.247,3.2486,3.2501,3.2596,3.2559,3.2566,3.2571,3.2802,3.2804,3.2806,0,0,0,0,0,0,3.1973,3.1995,3.2189,3.2108,3.2134,3.2211,3.2257,3.227,3.2305,3.2388,3.2402,3.2337,3.247,3.249,3.2574,3.2602,3.257,3.2577,3.28,3.2803,3.2805,3.2784,0,0,0,0,0,0,3.1966,3.1993,3.202,3.2108,3.2138,3.2258,3.2259,3.2274,3.2317,3.232,3.2412,3.2426,3.247,3.2562,3.2582,3.2612,3.2583,3.2798,3.2801,3.2804,3.2782,3.2785,3.2787,0,0,0,0,0,3.1957,3.2008,3.2021,3.2043,3.2172,3.2259,3.2276,3.2325,3.2319,3.2348,3.2402,3.2423,3.2595,3.2571,3.2593,3.2626,3.2797,3.2801,3.2804,3.2781,3.2784,3.2787,0,0,0,0,0,0,3.1922,3.202,3.2036,3.2116,3.2179,3.2267,3.2305,3.2327,3.2393,3.2393,3.2453,3.2473,3.2554,3.2599,3.2569,3.2704,3.2697,3.2706,3.2672,3.2676,3.2678,3.2667,3.2589,0,0,0,0,0,3.1923,3.1983,3.2067,3.213,3.2161,3.2227,3.2267,3.2299,3.2367,3.2394,3.2454,3.2521,3.2591,3.2636,3.2704,3.2789,3.2811,3.2823,3.2825,3.2827,3.2834,3.2885,3.2892,3.2818,3.2818,3.2818,0,0,3.1927,3.1989,3.2023,3.2125,3.2177,3.2241,3.2249,3.2315,3.2364,3.2405,3.2488,3.2535,3.2614,3.2699,3.274,3.2739,3.2859,3.2831,3.2832,3.2839,3.289,3.2897,3.2903,3.282,3.282,3.282,0,0,3.1968,3.2019,3.2079,3.2131,3.2209,3.2253,3.2268,3.2353,3.2385,3.2469,3.2502,3.2562,3.268,3.2736,3.278,3.2843,3.2866,3.2864,3.2878,3.2927,3.2933,3.2939,3.2964,3.2972,3.287,3.287,3.287,0,3.1964,3.2059,3.2107,3.2172,3.2217,3.2256,3.2318,3.2367,3.2465,3.2497,3.2493,3.2644,3.2699,3.28,3.2816,3.2849,3.287,3.2854,3.2928,3.2934,3.294,3.2965,3.2974,3.287,3.287,3.287,3.287,0,3.2051,3.2117,3.2156,3.2248,3.2298,3.2361,3.2422,3.2467,3.2495,3.254,3.2627,3.2695,3.278,3.2806,3.2834,3.2911,3.2909,3.2916,3.2911,3.2946,3.2971,3.298,3.2869,3.2869,3.2869,3.2869,0,0,3.2075,3.2193,3.2207,3.225,3.234,3.2394,3.246,3.2541,3.258,3.2646,3.2706,3.2805,3.2813,3.2863,3.2898,3.2941,3.2991,3.2944,3.2947,3.2952,3.3084,3.3079,3.3089,3.3005,3.3007,3.3009,3.3078,0,3.2128,3.2247,3.2293,3.2391,3.2454,3.2492,3.2551,3.2614,3.2658,3.272,3.277,3.2841,3.2845,3.2875,3.2919,3.2975,3.3018,3.297,3.3065,3.3067,3.3045,3.3102,3.3097,3.3158,3.3087,3.3089,3.309,0,3.2207,3.2273,3.2377,3.2461,3.249,3.2541,3.2621,3.2678,3.2752,3.2782,3.2837,3.287,3.2945,3.2933,3.3039,3.3005,3.3047,3.308,3.3084,3.3096,3.3082,3.3118,3.3179,3.3189,3.3105,3.3104,3.3103,0,3.2217,3.2332,3.241,3.2445,3.2545,3.2581,3.2625,3.2697,3.2743,3.2813,3.2845,3.2923,3.2966,3.3027,3.3082,3.3068,3.3183,3.3175,3.3213,3.3211,3.3237,3.3235,3.3307,3.3259,3.3259,3.3259,3.3259,0,3.2274,3.2336,3.2416,3.2463,3.2536,3.259,3.2661,3.2707,3.2771,3.2831,3.2869,3.2925,3.2992,3.3057,3.3101,3.3183,3.3202,3.323,3.3241,3.3228,3.3225,3.3258,3.3256,3.3261,3.3261,3.326,3.326,0,3.2297,3.2352,3.244,3.2527,3.2551,3.2601,3.2677,3.2727,3.2773,3.2848,3.2869,3.2943,3.3022,3.3082,3.3185,3.3214,3.3302,3.3313,3.3277,3.3283,3.3318,3.3315,3.3416,3.3433,3.3371,3.3371,3.3372,0,3.2331,3.238,3.2472,3.2514,3.2558,3.2625,3.2672,3.2728,3.2776,3.2865,3.2905,3.2986,3.3054,3.3179,3.3244,3.3323,3.3338,3.3368,3.335,3.3336,3.3342,3.3339,3.3346,3.3371,3.3371,3.3371,3.3372,0,3.2386,3.2411,3.2477,3.2553,3.2608,3.2671,3.2736,3.2768,3.2836,3.2889,3.297,3.3022,3.3127,3.3209,3.3295,3.3343,3.337,3.3376,3.339,3.3378,3.3356,3.3371,3.3286,3.3374,3.3374,3.3374,3.3374,3.3374,3.2417,3.2464,3.2536,3.261,3.2663,3.2723,3.2774,3.2827,3.2894,3.2983,3.3012,3.3096,3.3172,3.329,3.3339,3.3408,3.3408,3.3427,3.3432,3.3436,3.3437,3.3343,3.3423,3.3423,3.3423,3.3423,3.3423,0,3.2476,3.2525,3.2592,3.268,3.2738,3.2755,3.2828,3.2876,3.2949,3.3016,3.3082,3.3177,3.3256,3.3327,3.341,3.3452,3.3466,3.3472,3.3471,3.3482,3.343,3.3411,3.3459,3.3459,3.3459,3.3459,3.3459,3.3459,3.2514,3.2594,3.2628,3.2737,3.2786,3.2867,3.2907,3.2964,3.3018,3.312,3.3186,3.3231,3.3301,3.339,3.3465,3.3484,3.3514,3.3517,3.354,3.349,3.3486,3.3482,3.3464,3.3523,3.3523,3.3587,3.3587,3.3588]},{"header":{"parameterUnit":"m.s-1","parameterCategory":1,"la1":30.2991,"la2":30.254,"lo1":-89.0895,"lo2":-89.0444,"dy":0.0017,"dx":0.0017,"nx":28,"ny":28,"refTime":"2024-05-13T21:00:00:Z","depth":0,"parameterNumber":3,"parameterNumberName":"V-component_of_WINDS"},"data":[0,0,0,0,0,0,0,0,0,0,0,0,0,0,0,0,0,0,0,0,0,0,0,0,0,0,0,0,0,0,0,0,0,0,0,0,0,0,0,0,0,0,0,0,0,0,0,0,0,0,0,0,0,0,0,0,0,0,0.029,0.029,0,0.0333,0.0333,0.0333,0.0324,0.0323,0.0322,0.0322,0.0366,0.0368,0.037,0,0,0,0,0,0,0,0,0,0,0,0,0,0.02,0.0202,0.029,0.029,0.0291,0.0332,0.0333,0.0334,0.0324,0.0323,0.0322,0.0321,0.0366,0.0368,0.037,0,0,0,0,0,0,0,0,0,0,0,0,0,0.0241,0.0202,0.029,0.0291,0.0292,0.0332,0.0333,0.0334,0.0324,0.0323,0.0322,0.0321,0.0365,0.0368,0.0371,0.0413,0,0,0.038,0.0381,0,0,0,0,0,0,0,0,0.0238,0.0244,0.029,0.0291,0.0292,0.0322,0.0318,0.036,0.0325,0.0312,0.0322,0.032,0.0353,0.0356,0.0367,0.0415,0.0417,0.038,0.0382,0.0383,0.0384,0,0,0,0,0,0,0,0.0236,0.0242,0.0307,0.0291,0.0292,0.029,0.0294,0.0326,0.0339,0.0313,0.0312,0.0318,0.0353,0.0364,0.0368,0.0418,0.038,0.0382,0.0384,0.0385,0.05,0.0501,0,0,0,0,0,0,0.0232,0.024,0.0305,0.0308,0.0262,0.0292,0.0297,0.0313,0.0338,0.0341,0.0319,0.0317,0.036,0.0365,0.037,0.0419,0.0383,0.0386,0.0387,0.0498,0.05,0.0501,0,0,0,0,0,0,0.023,0.0238,0.0304,0.0274,0.0282,0.0295,0.0313,0.0315,0.0326,0.0342,0.0345,0.0328,0.0359,0.0366,0.0402,0.042,0.0387,0.039,0.0497,0.0499,0.0501,0.0518,0,0,0,0,0,0,0.0228,0.0237,0.0254,0.0274,0.0284,0.0335,0.0315,0.0317,0.0331,0.033,0.0352,0.0354,0.0359,0.0397,0.0404,0.0424,0.0392,0.0495,0.0498,0.05,0.0516,0.052,0.0524,0,0,0,0,0,0.0225,0.0258,0.0255,0.0263,0.0304,0.0336,0.0342,0.0345,0.0333,0.0349,0.0359,0.0354,0.0417,0.0401,0.0409,0.0429,0.0494,0.0497,0.05,0.0514,0.052,0.0524,0,0,0,0,0,0,0.024,0.0261,0.0257,0.0298,0.0315,0.0334,0.0355,0.0352,0.0373,0.0371,0.0375,0.038,0.0416,0.0427,0.0408,0.047,0.0454,0.0458,0.0462,0.0467,0.0471,0.0467,0.0394,0,0,0,0,0,0.0248,0.0272,0.0289,0.0324,0.0332,0.0342,0.0356,0.0358,0.0376,0.0383,0.0396,0.0414,0.0437,0.0453,0.0476,0.0518,0.0521,0.0535,0.054,0.0543,0.0547,0.0567,0.0573,0.0511,0.0511,0.0511,0,0,0.0266,0.028,0.0295,0.0327,0.0341,0.0365,0.0348,0.0376,0.0393,0.0388,0.0421,0.0431,0.0452,0.049,0.0507,0.05,0.0565,0.0547,0.0549,0.0551,0.0571,0.0576,0.0582,0.0513,0.0512,0.0512,0,0,0.0309,0.0323,0.0352,0.0365,0.0385,0.0391,0.0398,0.0418,0.0424,0.0458,0.0453,0.0475,0.0516,0.053,0.0542,0.0589,0.0584,0.0596,0.0618,0.0638,0.0642,0.0647,0.0661,0.0667,0.06,0.06,0.06,0,0.0328,0.0364,0.0368,0.0394,0.0408,0.0403,0.0431,0.0445,0.0471,0.0481,0.0472,0.0522,0.0535,0.0575,0.0586,0.0598,0.0605,0.0593,0.0641,0.0646,0.065,0.0664,0.067,0.0601,0.0601,0.0601,0.0601,0,0.0385,0.0411,0.0432,0.0456,0.0472,0.05,0.0507,0.0523,0.0523,0.053,0.0563,0.0579,0.0604,0.0614,0.0615,0.0654,0.0648,0.064,0.0624,0.0657,0.067,0.0676,0.0603,0.0603,0.0602,0.0602,0,0,0.044,0.0465,0.0472,0.0482,0.0504,0.0523,0.055,0.0574,0.0586,0.0605,0.0627,0.0661,0.0653,0.0667,0.0669,0.0687,0.072,0.0677,0.0677,0.0682,0.0762,0.0766,0.0773,0.0717,0.0718,0.0719,0.0759,0,0.0484,0.0531,0.0534,0.0576,0.0598,0.0593,0.0616,0.0631,0.0638,0.0658,0.0666,0.0689,0.0678,0.0686,0.0703,0.0712,0.0736,0.071,0.0737,0.0738,0.073,0.078,0.0785,0.0822,0.0765,0.0766,0.0766,0,0.0542,0.056,0.0604,0.062,0.0629,0.065,0.0671,0.069,0.0707,0.071,0.0725,0.0724,0.0751,0.0734,0.077,0.0752,0.0763,0.0769,0.0771,0.0772,0.0753,0.0781,0.0835,0.0839,0.0775,0.0774,0.0774,0,0.0574,0.0611,0.0641,0.065,0.067,0.0684,0.0693,0.0709,0.0722,0.074,0.0748,0.077,0.0782,0.0798,0.0802,0.079,0.0838,0.0822,0.0841,0.084,0.085,0.0849,0.0904,0.086,0.086,0.086,0.086,0,0.0622,0.0649,0.0656,0.0674,0.0704,0.0707,0.0735,0.0744,0.0757,0.0776,0.0774,0.0793,0.0798,0.0817,0.0821,0.0849,0.0855,0.0858,0.0859,0.0857,0.0857,0.0864,0.0861,0.0861,0.0861,0.0861,0.0861,0,0.0664,0.067,0.0702,0.0717,0.0722,0.0742,0.0756,0.0773,0.0779,0.0804,0.081,0.0819,0.0842,0.0848,0.0875,0.0878,0.091,0.0909,0.0904,0.0904,0.0921,0.0919,0.0982,0.099,0.0942,0.0942,0.0943,0,0.0693,0.0713,0.073,0.0742,0.0751,0.0772,0.0785,0.0788,0.0802,0.0821,0.0836,0.0858,0.0875,0.0911,0.092,0.0941,0.0939,0.096,0.0942,0.094,0.0937,0.0935,0.0936,0.0963,0.0963,0.0964,0.0964,0,0.0743,0.0745,0.0763,0.0782,0.0798,0.0813,0.0828,0.0839,0.0844,0.0859,0.0881,0.0895,0.0922,0.0943,0.0963,0.0972,0.0968,0.0969,0.0975,0.0973,0.0968,0.0969,0.0911,0.0968,0.0967,0.0967,0.0967,0.0967,0.0778,0.0795,0.0809,0.0829,0.084,0.0854,0.087,0.0878,0.0896,0.0917,0.0919,0.0942,0.0957,0.0983,0.0993,0.1011,0.1005,0.1013,0.1015,0.1016,0.1017,0.0967,0.1015,0.1015,0.1015,0.1015,0.1015,0,0.0827,0.0835,0.0854,0.0874,0.0889,0.0884,0.09,0.0913,0.0934,0.0948,0.0964,0.0989,0.1009,0.1019,0.1039,0.1051,0.105,0.1056,0.1055,0.1056,0.1022,0.1015,0.1057,0.1057,0.1057,0.1057,0.1057,0.1057,0.0854,0.0881,0.0884,0.0917,0.0925,0.0947,0.0956,0.0968,0.0979,0.1006,0.1022,0.1029,0.1041,0.1061,0.1079,0.1081,0.1088,0.1094,0.1096,0.1063,0.1059,0.1055,0.1048,0.1096,0.1096,0.1128,0.1128,0.1129]}]]